Regional Weather Roundup
Issued by NWS Albany, NY

Home | Current Version | Previous Version | Graphics & Text | Print | Product List | Glossary Off
Versions: 1 2 3 4 5 6 7 8 9 10 11 12 13 14 15 16 17 18 19 20 21 22 23 24 25 26 27 28 29 30 31 32 33 34 35 36 37 38 39 40 41 42 43 44 45 46 47 48 49 50

335
ASUS41 KALY 072210
RWRALY

NEW YORK STATE HOURLY WEATHER ROUNDUP
NATIONAL WEATHER SERVICE ALBANY NY
500 PM EST WED DEC 07 2016

NOTE: "FAIR" INDICATES FEW OR NO CLOUDS BELOW 12,000 FEET WITH NO
SIGNIFICANT WEATHER AND/OR NO OBSTRUCTIONS TO VISIBILITY.

NYZ032-033-038>043-046>054-057>066-NYZ062>081-082-084-072300-
EAST


CITY           SKY/WX    TMP DP  RH WIND       PRES   REMARKS
ALBANY         PTCLDY    35  33  92 CALM      30.01R
GLENS FALLS    CLEAR     38  31  76 SW8       29.98R WCI  32
POUGHKEEPSIE   MOCLDY    40  36  86 CALM      30.00R
NEWBURGH       PTCLDY    37  36  93 W7        30.00R WCI  32
MONTGOMERY     PTCLDY    35  34  96 W5        30.00R WCI  31
WHITE PLAINS   PTCLDY    41  34  76 W5        30.01R
ISLIP          CLOUDY    43  37  79 W6        30.02R
NEW YORK CITY  CLOUDY    47  37  68 NW9       30.02R
CENTRAL PARK   CLOUDY    45  35  68 CALM      30.04R
$$

NYZ005>009-017-018-044>046-055-056-072300-
CENTRAL


CITY           SKY/WX    TMP DP  RH WIND       PRES   REMARKS
FULTON         CLOUDY    38  28  67 SW7       29.98F WCI  33
SYRACUSE       CLOUDY    38  29  70 W12       29.99R WCI  30
ROME           CLOUDY    35  30  82 NW5       30.00R WCI  31
ELMIRA         MOCLDY    38  27  64 CALM      29.99R
BINGHAMTON     PTCLDY    35  25  66 CALM      29.96R
MONTICELLO     PTCLDY    36  32  87 W5        29.99R WCI  32
$$

NYZ026>034-041>043-087-072300-
NORTH


CITY           SKY/WX    TMP DP  RH WIND       PRES   REMARKS
WATERTOWN      CLOUDY    38  30  73 W14G22    29.97S WCI  30
FORT DRUM      NOT AVBL
OGDENSBURG     CLOUDY    38  29  70 SW8G17    29.94R WCI  32
MASSENA        CLOUDY    38  26  62 SW9       29.94R WCI  31
SARANAC LAKE   CLOUDY    33  26  75 SW8G18    29.89R WCI  26
PLATTSBURGH    CLOUDY    40  27  59 VRB5      29.94R
$$

NYZ001>004-010>016-019>021-085-072300-
WEST


CITY           SKY/WX    TMP DP  RH WIND       PRES   REMARKS
NIAGARA FALLS  MOCLDY    39  28  64 SW20      29.96S WCI  29
BUFFALO        MOCLDY    38  29  70 SW18G31   29.97R WCI  28
DUNKIRK        PTCLDY    35  27  72 SW9       30.01R WCI  28
JAMESTOWN      CLEAR     32  21  64 SW8       29.97S WCI  25
WELLSVILLE     CLEAR     36  22  56 W6        29.97R WCI  31
ROCHESTER      MOCLDY    38  29  70 SW13      29.98S WCI  30
PENN YAN       PTCLDY    38  24  57 W9        30.00R WCI  31
$$

             KEY
       WCI = WIND CHILL INDEX
       VSB = VISIBILITY
       HX  = HEAT INDEX
$$




USA.gov is the U.S. government's official web portal to all federal, state and local government web resources and services.